This is the latest recevied weather packets stored in our database for station/object KC3ROS. If no packets are shown the sender has not sent any weather packets the latest 10 day(s).
| Time | Temp. | Humidity | Pressure | Rain* | Wind** | Luminosity | Snow |
|---|---|---|---|---|---|---|---|
| 1777999501 | 22.22° C | 53% | 1006.7 hPa | 0 mm | - | 195 W/m² | - |
| 1777999199 | 22.22° C | 55% | 1006.7 hPa | 0 mm | - | 236 W/m² | - |
| 1777998897 | 22.78° C | 56% | 1006.7 hPa | 0 mm | - | 232 W/m² | - |
| 1777998596 | 22.22° C | 55% | 1006.8 hPa | 0 mm | - | 197 W/m² | - |
| 1777998292 | 22.22° C | 56% | 1006.8 hPa | 0 mm | - | 323 W/m² | - |
| 1777997988 | 21.67° C | 57% | 1007 hPa | 0 mm | - | 649 W/m² | - |
| 1777997685 | 21.67° C | 58% | 1007.2 hPa | 0 mm | - | 261 W/m² | - |
| 1777997383 | 20.56° C | 59% | 1007.2 hPa | 0 mm | - | 447 W/m² | - |
| 1777997081 | 20.56° C | 62% | 1007.3 hPa | 0 mm | - | 242 W/m² | - |
| 1777996777 | 21.11° C | 61% | 1007.1 hPa | 0 mm | - | 173 W/m² | - |
| 1777996473 | 20.56° C | 63% | 1007 hPa | 0 mm | - | 219 W/m² | - |
| 1777996170 | 21.11° C | 61% | 1007 hPa | 0 mm | - | 187 W/m² | - |
| 1777995866 | 20° C | 62% | 1007.2 hPa | 0 mm | - | 323 W/m² | - |
| 1777995562 | 20° C | 64% | 1007.6 hPa | 0 mm | - | 217 W/m² | - |
| 1777995260 | 20° C | 63% | 1007.3 hPa | 0 mm | - | 158 W/m² | - |
| 1777994957 | 20° C | 61% | 1007.2 hPa | 0 mm | - | 205 W/m² | - |
| 1777994654 | 20° C | 65% | 1007.4 hPa | 0 mm | - | 253 W/m² | - |
| 1777994348 | 20° C | 63% | 1007.3 hPa | 0 mm | - | 121 W/m² | - |
| 1777994045 | 20° C | 61% | 1007.3 hPa | 0 mm | - | 204 W/m² | - |
| 1777993741 | 19.44° C | 64% | 1007 hPa | 0 mm | - | 327 W/m² | - |
| 1777993438 | 19.44° C | 62% | 1007.1 hPa | 0 mm | - | 279 W/m² | - |
| 1777993133 | 19.44° C | 63% | 1006.9 hPa | 0 mm | - | 207 W/m² | - |
| 1777992831 | 19.44° C | 63% | 1006.9 hPa | 0 mm | - | 207 W/m² | - |
| 1777992528 | 19.44° C | 63% | 1006.8 hPa | 0 mm | - | 176 W/m² | - |
| 1777992227 | 19.44° C | 63% | 1006.8 hPa | 0 mm | - | 215 W/m² | - |
* Rain latest hour (hover to see other rain measurements)
** Current wind speed in m/s (hover to see current wind gust speed)